Location: Gleizolles
(44.4833°N, 6.7667°E)
Time: 15:23:48
(UTC+00:00)

Altair - Pass Details

Date: 30 June 2024
Orbit: 1502 x 1681 km, 47.2° (Epoch: 13 July)

Event Time Altitude Azimuth Distance (km) Brightness Sun altitude
Rises 02:06:42 0° 274° (W) 4,641 9.7 -14.2°
Reaches altitude 10° 02:09:43 10° 276° (W) 3,668 9.2 -13.9°
Maximum altitude 02:18:58 76° 2° (N) 1,584 7.7 -12.9°
Drops below altitude 10° 02:28:34 10° 88° (E) 3,783 10.2 -11.8°
Sets 02:31:43 0° 91° (E) 4,792 10.7 -11.4°
